Weather Roundup
Issued by NWS Corpus Christi, TX

Home | Current Version | Previous Version | Text Only | Print | Product List | Glossary On
Versions: 1 2 3 4 5 6 7 8 9 10 11 12 13 14 15 16 17 18 19 20 21 22 23 24 25 26 27 28 29 30 31 32 33 34 35 36 37 38 39 40 41 42 43 44 45 46 47 48 49 50
000
ASUS44 KCRP 220710
HRRCRP

SOUTH TEXAS REGIONAL WEATHER ROUNDUP
NATIONAL WEATHER SERVICE CORPUS CHRISTI TX
200 AM CDT TUE AUG 22 2017


TXZ229>244-220800-
...CORPUS CHRISTI AREA OBSERVATIONS...

CITY           SKY/WX    TMP DP  RH WIND       PRES   REMARKS
CORPUS CHRISTI PTCLDY    79  75  87 S5        30.03F
NAS CORPUS CHR CLEAR     84  76  76 SE12      30.03F HX  93
ROCKPORT       CLEAR     84  75  74 SE10      30.03F HX  92
KINGSVILLE ARP FAIR      79  77  95 CALM      30.04F
KINGSVILLE NAS CLEAR     80  78  94 E3        30.03F
ALICE          CLEAR     78  74  87 SE3       30.04F
FALFURRIAS     CLEAR     78  74  87 CALM      30.03F
$$

...VICTORIA AREA OBSERVATIONS...

CITY           SKY/WX    TMP DP  RH WIND       PRES   REMARKS
PORT LAVACA    CLEAR     79  73  83 CALM      30.05F
VICTORIA       CLEAR     79  74  84 CALM      30.06F
BEEVILLE       FAIR     N/A N/A N/A E3        30.06S
PLEASANTON     NOT AVBL
SAN ANTONIO    PTCLDY    79  72  79 SE12      30.10F
$$

...LAREDO AREA OBSERVATIONS...

CITY           SKY/WX    TMP DP  RH WIND       PRES   REMARKS
LAREDO         CLEAR     81  72  74 SE10      30.05F
COTULLA        CLEAR     81  71  71 SE9       30.06F
DEL RIO        CLEAR     83  67  58 E13       30.04R
MCALLEN        PTCLDY    82  75  79 E5        30.03F
HEBBRONVILLE   CLEAR     76  70  83 CALM      30.07F
$$

...OTHER TEXAS OBSERVATIONS...

CITY           SKY/WX    TMP DP  RH WIND       PRES   REMARKS
BROWNSVILLE    CLEAR     80  77  90 E3        30.02F
HOUSTON        PTCLDY    77  75  93 CALM      30.05F
COL. STATION   CLEAR     79  74  84 CALM      30.07F
AUSTIN         PTCLDY    79  73  82 S3        30.08F
WACO           CLEAR     83  72  69 S15       30.06F
FORT WORTH     PTCLDY    84  72  67 S12       30.04S
WICHITA FALLS  CLOUDY    78  67  68 S12       30.03S
LUBBOCK        MOCLDY    70  66  87 SE3       30.15R
EL PASO        PTCLDY    76  68  76 CALM      30.13F
$$

...MARINE OBSERVATIONS...

STATION/POSITION TIME  SKY/WX   TEMP    WIND        PRES    VSBY  WAVE   SWELL
                                AIR SEA DIR/SP/G                  HT/PER HT/PER
                 (UTC)          (F)     (DEG/KT/KT) (MB)    (MI)  (FT/S) (FT/S)
PORT ARANSAS     0600            84 85  120/ 12/ 13 1017.5F
BUOY 90 E PORT A 0650            85 85  150/  8/ 10 1017.1F         3/ 5   2/ 5
BUOY 45 SE BAFFI 0650            83     100/  8/  8 1015.8F         4/ 5   3/ 5
BUOY 200 E PT IS 0650            85 88  120/ 10/ 14 1016.2F         3/ 6   3/ 6
BUOY 15 E GALVES 0550            86 87  170/ 10/ 12 1017.8          2/ 5
$$




USA.gov is the U.S. government's official web portal to all federal, state and local government web resources and services.